Location: Acton
(51.4942°N, 0.2232°W)
Time: 14:09:41
(UTC+00:00)

Okean 1-7 Rocket - Pass Details

Date: 19 January 2021
Orbit: 615 x 650 km, 82.5° (Epoch: 28 February)

Event Time Altitude Azimuth Distance (km) Brightness Sun altitude
Rises 17:14:53 0° 141° (SE) 2,947 6.9 -7.3°
Reaches altitude 10° 17:17:51 10° 120° (ESE) 2,048 5.9 -7.7°
Maximum altitude 17:20:37 16° 82° (E) 1,686 5.2 -8.1°
Drops below altitude 10° 17:23:23 10° 45° (NE) 2,065 5.7 -8.5°
Enters shadow 17:24:27 - 36° (NE) 2,353 6.0 -8.6°
